Weather Roundup
Issued by NWS Springfield, MO

Home | Current Version | Previous Version | Text Only | Print | Product List | Glossary On
Versions: 1 2 3 4 5 6 7 8 9 10 11 12 13 14 15 16 17 18 19 20 21 22 23 24 25 26 27 28 29 30 31 32 33 34 35 36 37 38 39 40 41 42 43 44 45 46 47 48 49 50
000
NZUS99 KSGF 220507
HRRSGF

HOURLY WEATHER
NATIONAL WEATHER SERVICE SPRINGFIELD MO
1100 PM CST SUN DEC 21 2014

......SGF CWA......

CITY           SKY/WX    TMP DP  RH WIND       PRES   REMARKS
SPRINGFIELD    CLOUDY    43  36  76 SE15      29.82S
JOPLIN         CLOUDY    45  39  79 S10       29.79F
WEST PLAINS    CLOUDY    40  33  76 SE7       29.89F
ROLLA          CLOUDY    39  32  76 SE10      29.86F WCI  32
OSAGE BEACH    CLOUDY    43  34  70 SE10      29.85F
BRANSON        CLOUDY    43  37  81 SE9       29.84S

......SURROUNDING SGF CWA......

CITY           SKY/WX    TMP DP  RH WIND       PRES   REMARKS
CHANUTE        CLOUDY    44  40  85 S16       29.75F
PARSONS        CLOUDY    45  41  86 SE9G20    29.76F
COFFEYVILLE    CLOUDY    44  42  93 SE13      29.75F FOG
EMPORIA        CLOUDY    43  41  93 S18       29.69F
GROVE OK       CLOUDY    45  45 100 SE9       29.80F FOG
ROGERS AR      LGT RAIN  42  40  92 SE5       29.81F FOG
SILOAM SPRINGS CLOUDY    43  37  81 S6        29.82F
HARRISON AR    CLOUDY    44  37  76 SE8       29.83F
NEAR YELLVILLE CLOUDY    43  34  70 E6        29.86F

......KANSAS AND MISSOURI......

CITY           SKY/WX    TMP DP  RH WIND       PRES   REMARKS
KANSAS CTY INT CLOUDY    43  38  82 S16       29.75F
DOWNTOWN KC    CLOUDY    45  37  73 S10G21    29.77F
COLUMBIA       CLOUDY    41  34  76 SE13      29.86F
SEDALIA        CLOUDY    43  35  73 SE13      29.83F
ST JOSEPH      CLOUDY    44  40  85 S13       29.75S
ST LOUIS       CLOUDY    44  31  60 SE10      29.95F
SPIRIT OF STL  CLOUDY    43  32  65 SE5       29.93F
KIRKSVILLE     CLOUDY    40  37  89 SE14      29.84F WCI  32
WICHITA        CLOUDY    45  42  89 S17G24    29.65F FOG
TOPEKA         CLOUDY    46  41  82 S9        29.73S
OLATHE         CLOUDY    42  38  85 S12G21    29.75F

......TENNESSEE......

CITY           SKY/WX    TMP DP  RH WIND       PRES   REMARKS
MEMPHIS        PTCLDY    48  41  76 SE10      29.94F
NASHVILLE      CLEAR     44  38  79 SE7       30.03F

......ARKANSAS.......

CITY           SKY/WX    TMP DP  RH WIND       PRES   REMARKS
FAYETTEVILLE   CLOUDY    44  41  89 S7        29.81F
FT SMITH       CLOUDY    47  41  80 E3        29.83S
LITTLE ROCK    MOCLDY    45  36  70 E7        29.87F

......OKLAHOMA.......

CITY           SKY/WX    TMP DP  RH WIND       PRES   REMARKS
TULSA          DRIZZLE   46  45  96 S12       29.75F FOG
PONCA CITY     CLOUDY    46  44  93 SE18      29.68F FOG
MCALESTER      CLOUDY    48  44  86 SE8       29.76F
OKLAHOMA CITY  CLOUDY    48  44  86 SE17G23   29.65F

......IOWA............

CITY           SKY/WX    TMP DP  RH WIND       PRES   REMARKS
DES MOINES     CLOUDY    43  39  86 S17       29.76F
QUAD CITIES    CLOUDY    36  31  82 SE12G22   29.92S WCI  28

......ILLINOIS........

CITY           SKY/WX    TMP DP  RH WIND       PRES   REMARKS
QUINCY         CLOUDY    39  33  79 SE10      29.90F WCI  32
CHICAGO        CLOUDY    32  27  81 S10       30.03S WCI  24




USA.gov is the U.S. government's official web portal to all federal, state and local government web resources and services.